This demonstration page uses our WeatherBlox Daily Observations layout. Learn more.

Left ArrowRight Arrow

39.01783, -85.05884

Hourly Observations for June 22, 2017

Temp ( °F °C ) Dew Point ( °F °C ) Humidity (%) Winds ( mph kmh ) Pressure ( in mb ) Visibility ( mi km ) Precip ( " mm )
12:52 am 00:52 Cloudy 74 23.3 67 19.4 79 79 SSW 7 11 29.97 1015 10 16 N/A
1:52 am 01:52 Mostly Cloudy 73 22.8 67 19.4 81 81 SSW 6 9 29.98 1015 10 16 N/A
2:52 am 02:52 Mostly Cloudy 72 22.2 67 19.4 84 84 SSW 6 9 29.98 1015 10 16 N/A
3:52 am 03:52 Cloudy 71 21.7 67 19.4 87 87 SSW 6 9 29.98 1015 10 16 N/A
4:52 am 04:52 Cloudy 71 21.7 67 19.4 87 87 SSW 6 9 29.98 1015 10 16 N/A
5:52 am 05:52 Cloudy 71 21.7 67 19.4 87 87 SSW 8 13 29.97 1015 10 16 N/A
6:52 am 06:52 Cloudy 70 21.1 67 19.4 90 90 S 6 9 29.98 1015 10 16 N/A
7:52 am 07:52 Cloudy 72 22.2 68 20 87 87 SSW 8 13 29.98 1015 10 16 N/A
8:52 am 08:52 Mostly Cloudy 75 23.9 69 20.6 82 82 SSW 9 15 29.99 1016 10 16 N/A
9:52 am 09:52 Mostly Cloudy 76 24.4 69 20.6 79 79 SSW 8 13 29.99 1016 10 16 N/A
10:52 am 10:52 Mostly Cloudy 77 25 69 20.6 77 77 SSW 9 15 30.01 1016 10 16 N/A
11:52 am 11:52 Mostly Cloudy 78 25.6 70 21.1 76 76 SSW 8 13 30.00 1016 10 16 N/A
12:52 pm 12:52 Cloudy 81 27.2 71 21.7 72 72 SSW 13 20 29.98 1015 10 16 N/A
1:52 pm 13:52 Cloudy 80 26.7 70 21.1 71 71 SSW 13 20 29.97 1015 10 16 N/A
2:52 pm 14:52 Cloudy 79 26.1 68 20 69 69 SSW 17 28 29.96 1014 10 16 N/A
3:52 pm 15:52 Mostly Cloudy 79 26.1 68 20 69 69 S 16 26 29.93 1014 10 16 N/A
4:52 pm 16:52 Cloudy 79 26.1 68 20 69 69 S 17 28 29.92 1013 10 16 N/A
5:52 pm 17:52 Cloudy 76 24.4 68 20 77 77 S 10 17 29.91 1013 10 16 N/A
6:11 pm 18:11 Cloudy with Light Rain 75 23.9 68 20 79 79 SSW 15 24 29.91 1013 10 16 N/A
6:52 pm 18:52 Cloudy with Rain 72 22.2 70 21.1 94 94 S 8 13 29.90 1013 5 8 0.03 0.76
7:52 pm 19:52 Cloudy with Light Rain 72 22.2 70 21.1 94 94 SSE 9 15 29.90 1012 10 16 0.02 0.51
8:04 pm 20:04 Cloudy with Light Rain 72 22.2 70 21.1 94 94 SSE 10 17 29.88 1012 7 11 N/A
8:52 pm 20:52 Cloudy with Light Rain 72 22.2 70 21.1 94 94 S 13 20 29.86 1011 6 10 0.03 0.76
9:17 pm 21:17 Cloudy with Heavy Rain 71 21.7 70 21.1 96 96 S 17 28 29.85 1011 3 4 0.03 0.76
9:25 pm 21:25 Cloudy with Light Rain 71 21.7 69 20.6 94 94 S 16 26 29.85 1011 5 8 0.07 1.78
9:40 pm 21:40 Cloudy with Light Rain 71 21.7 69 20.6 94 94 S 18 30 29.85 1011 10 16 0.07 1.78
9:52 pm 21:52 Cloudy with Light Rain 70 21.1 69 20.6 97 97 S 14 22 29.86 1011 9 14 0.07 1.78
10:52 pm 22:52 Cloudy with Light Rain 70 21.1 69 20.6 97 97 SSE 13 20 29.86 1011 10 16 0.07 1.78
11:30 pm 23:30 Cloudy with Light Rain 70 21.1 69 20.6 97 97 S 10 17 29.85 1011 4 6 0.01 0.25
11:52 pm 23:52 Cloudy with Light Rain 70 21.1 69 20.6 97 97 SSE 10 17 29.85 1011 3 5 0.03 0.76

Powered by AerisWeather